| time (UTC) | temp C | wind direction | speed KPH | gust KPH | rain 1hr cm | rain 24hr cm | rain mn cm | humidity % | barometer mb |
| 20260504050323 | 6 | 85 | 0.0 | 0.0 | 0.00 | 0.00 | 0.00 | 80 | 1017.3 |
| 20260504045820 | 7 | 86 | 0.0 | 0.0 | 0.00 | 0.00 | 0.00 | 78 | 1016.9 |
| 20260504045320 | 7 | 81 | 0.0 | 0.0 | 0.00 | 0.00 | 0.00 | 76 | 1017.1 |
| 20260504044817 | 7 | 75 | 0.0 | 0.0 | 0.00 | 0.00 | 0.00 | 76 | 1017.0 |
| 20260504044314 | 7 | 67 | 0.0 | 0.0 | 0.00 | 0.00 | 0.00 | 75 | 1016.9 |
| 20260504043812 | 6 | 71 | 0.0 | 0.0 | 0.00 | 0.00 | 0.00 | 75 | 1016.8 |
| 20260504043308 | 6 | 84 | 0.0 | 0.0 | 0.00 | 0.00 | 0.00 | 79 | 1016.8 |
| 20260504042806 | 6 | 71 | 0.0 | 0.0 | 0.00 | 0.00 | 0.00 | 78 | 1017.0 |
| 20260504042304 | 6 | 71 | 0.0 | 0.0 | 0.00 | 0.00 | 0.00 | 80 | 1016.9 |
| 20260504041759 | 6 | 71 | 0.0 | 0.0 | 0.00 | 0.00 | 0.00 | 79 | 1016.8 |
| 20260504041255 | 6 | 67 | 0.0 | 0.0 | 0.00 | 0.00 | 0.00 | 79 | 1016.8 |
| 20260504040751 | 6 | 73 | 0.0 | 0.0 | 0.00 | 0.00 | 0.00 | 79 | 1016.8 |
| 20260504040249 | 6 | 78 | 0.0 | 0.0 | 0.00 | 0.00 | 0.00 | 79 | 1016.8 |
| 20260504035744 | 6 | 75 | 0.0 | 0.0 | 0.00 | 0.00 | 0.00 | 78 | 1017.0 |
| 20260504035242 | 6 | 75 | 0.0 | 0.0 | 0.00 | 0.00 | 0.00 | 78 | 1016.9 |
| 20260504034739 | 6 | 75 | 0.0 | 0.0 | 0.00 | 0.00 | 0.00 | 76 | 1016.9 |
| 20260504034236 | 6 | 76 | 0.0 | 0.0 | 0.00 | 0.00 | 0.00 | 78 | 1017.0 |
| 20260504033734 | 7 | 67 | 0.0 | 0.0 | 0.00 | 0.00 | 0.00 | 78 | 1016.8 |
| 20260504033231 | 7 | 65 | 0.0 | 0.0 | 0.00 | 0.00 | 0.00 | 77 | 1016.9 |
| 20260504032728 | 7 | 56 | 0.0 | 0.0 | 0.00 | 0.00 | 0.00 | 76 | 1016.9 |
| 20260504032225 | 6 | 68 | 0.0 | 1.6 | 0.00 | 0.00 | 0.00 | 78 | 1016.8 |
| 20260504031722 | 6 | 87 | 0.0 | 0.0 | 0.00 | 0.00 | 0.00 | 77 | 1016.7 |
| 20260504031219 | 6 | 86 | 0.0 | 0.0 | 0.00 | 0.00 | 0.00 | 76 | 1016.7 |
| 20260504030715 | 6 | 70 | 0.0 | 0.0 | 0.00 | 0.00 | 0.00 | 76 | 1016.8 |
| 20260504030213 | 6 | 64 | 0.0 | 0.0 | 0.00 | 0.00 | 0.00 | 76 | 1016.7 |
| 20260504025709 | 6 | 78 | 0.0 | 0.0 | 0.00 | 0.00 | 0.00 | 77 | 1016.5 |
| 20260504025205 | 6 | 78 | 0.0 | 0.0 | 0.00 | 0.00 | 0.00 | 75 | 1016.7 |
| 20260504024703 | 6 | 78 | 0.0 | 0.0 | 0.00 | 0.00 | 0.00 | 76 | 1016.5 |
| 20260504024159 | 6 | 76 | 0.0 | 0.0 | 0.00 | 0.00 | 0.00 | 75 | 1016.8 |
| 20260504023656 | 6 | 76 | 0.0 | 0.0 | 0.00 | 0.00 | 0.00 | 76 | 1016.5 |
| 20260504023152 | 6 | 76 | 0.0 | 0.0 | 0.00 | 0.00 | 0.00 | 76 | 1016.7 |
| 20260504022648 | 6 | 76 | 0.0 | 0.0 | 0.00 | 0.00 | 0.00 | 74 | 1016.7 |
| 20260504022144 | 6 | 76 | 0.0 | 0.0 | 0.00 | 0.00 | 0.00 | 73 | 1016.8 |
| 20260504021642 | 6 | 76 | 0.0 | 0.0 | 0.00 | 0.00 | 0.00 | 76 | 1016.7 |
| 20260504021138 | 6 | 76 | 0.0 | 0.0 | 0.00 | 0.00 | 0.00 | 69 | 1016.7 |
| 20260504020636 | 6 | 76 | 0.0 | 0.0 | 0.00 | 0.00 | 0.00 | 72 | 1016.8 |
| 20260504020131 | 6 | 76 | 0.0 | 0.0 | 0.00 | 0.00 | 0.00 | 72 | 1016.7 |
| 20260504015628 | 6 | 76 | 0.0 | 0.0 | 0.00 | 0.00 | 0.00 | 75 | 1016.7 |
| 20260504015125 | 6 | 76 | 0.0 | 0.0 | 0.00 | 0.00 | 0.00 | 76 | 1016.7 |
| 20260504014621 | 5 | 78 | 0.0 | 0.0 | 0.00 | 0.00 | 0.00 | 70 | 1016.6 |
| 20260504014118 | 5 | 78 | 0.0 | 0.0 | 0.00 | 0.00 | 0.00 | 71 | 1016.6 |
| 20260504013615 | 5 | 77 | 0.0 | 0.0 | 0.00 | 0.00 | 0.00 | 70 | 1016.5 |
| 20260504013112 | 5 | 77 | 0.0 | 0.0 | 0.00 | 0.00 | 0.00 | 70 | 1016.6 |
| 20260504012610 | 5 | 77 | 0.0 | 0.0 | 0.00 | 0.00 | 0.00 | 70 | 1016.5 |
| 20260504012107 | 6 | 71 | 0.0 | 0.0 | 0.00 | 0.00 | 0.00 | 70 | 1016.3 |
| 20260504011604 | 6 | 64 | 0.0 | 0.0 | 0.00 | 0.00 | 0.00 | 70 | 1016.2 |
| 20260504011100 | 6 | 77 | 0.0 | 0.0 | 0.00 | 0.00 | 0.00 | 70 | 1016.2 |
| 20260504010556 | 6 | 78 | 0.0 | 0.0 | 0.00 | 0.00 | 0.00 | 66 | 1016.4 |
| 20260504010052 | 6 | 76 | 0.0 | 0.0 | 0.00 | 0.00 | 0.00 | 69 | 1016.3 |
| 20260504005549 | 7 | 76 | 0.0 | 0.0 | 0.00 | 0.00 | 0.00 | 66 | 1016.4 |
| 20260504005046 | 7 | 70 | 0.0 | 0.0 | 0.00 | 0.00 | 0.00 | 65 | 1016.4 |
| 20260504004544 | 7 | 71 | 0.0 | 0.0 | 0.00 | 0.00 | 0.00 | 65 | 1015.8 |
| 20260504004041 | 7 | 71 | 0.0 | 0.0 | 0.00 | 0.00 | 0.00 | 65 | 1015.8 |
| 20260504003537 | 7 | 76 | 0.0 | 0.0 | 0.00 | 0.00 | 0.00 | 60 | 1016.1 |
| 20260504003034 | 8 | 78 | 0.0 | 0.0 | 0.00 | 0.00 | 0.00 | 61 | 1016.0 |
| 20260504002531 | 8 | 78 | 0.0 | 0.0 | 0.00 | 0.00 | 0.00 | 69 | 1016.0 |
| 20260504002028 | 8 | 66 | 0.0 | 0.0 | 0.00 | 0.00 | 0.00 | 63 | 1016.0 |
| 20260504001526 | 9 | 78 | 0.0 | 0.0 | 0.00 | 0.00 | 0.00 | 60 | 1016.1 |
| 20260504001022 | 10 | 66 | 1.6 | 1.6 | 0.00 | 0.00 | 0.00 | 60 | 1016.0 |
| 20260504000519 | 10 | 65 | 0.0 | 0.0 | 0.00 | 0.00 | 0.00 | 57 | 1015.6 |
| 20260504000017 | 10 | 64 | 0.0 | 0.0 | 0.00 | 0.00 | 0.00 | 53 | 1016.0 |
| 20260503235515 | 11 | 61 | 1.6 | 1.6 | 0.00 | 0.00 | 0.00 | 51 | 1016.1 |
| 20260503235011 | 12 | 123 | 1.6 | 1.6 | 0.00 | 0.00 | 0.00 | 43 | 1016.1 |
| 20260503234509 | 12 | 72 | 0.0 | 0.0 | 0.00 | 0.00 | 0.00 | 45 | 1016.0 |
| 20260503234007 | 13 | 213 | 0.0 | 1.6 | 0.00 | 0.00 | 0.00 | 41 | 1016.2 |
| 20260503233503 | 13 | 191 | 3.2 | 4.8 | 0.00 | 0.00 | 0.00 | 39 | 1016.0 |
| 20260503232959 | 13 | 174 | 3.2 | 3.2 | 0.00 | 0.00 | 0.00 | 38 | 1015.8 |
| 20260503232456 | 13 | 5 | 0.0 | 0.0 | 0.00 | 0.00 | 0.00 | 40 | 1016.2 |
| 20260503231954 | 14 | 238 | 4.8 | 4.8 | 0.00 | 0.00 | 0.00 | 40 | 1016.3 |
| 20260503231451 | 13 | 138 | 3.2 | 3.2 | 0.00 | 0.00 | 0.00 | 41 | 1016.2 |
| 20260503230948 | 14 | 313 | 1.6 | 1.6 | 0.00 | 0.00 | 0.00 | 37 | 1016.1 |
| 20260503230444 | 14 | 273 | 6.4 | 6.4 | 0.00 | 0.00 | 0.00 | 37 | 1016.0 |
| 20260503225942 | 14 | 148 | 1.6 | 4.8 | 0.00 | 0.00 | 0.00 | 37 | 1015.8 |
| 20260503225439 | 14 | 257 | 4.8 | 6.4 | 0.00 | 0.00 | 0.00 | 38 | 1016.2 |
| 20260503224934 | 15 | 300 | 3.2 | 3.2 | 0.00 | 0.00 | 0.00 | 35 | 1016.2 |
| 20260503224431 | 15 | 234 | 3.2 | 4.8 | 0.00 | 0.00 | 0.00 | 34 | 1016.2 |
| 20260503223929 | 15 | 86 | 0.0 | 0.0 | 0.00 | 0.00 | 0.00 | 36 | 1016.5 |
| 20260503223427 | 15 | 69 | 0.0 | 1.6 | 0.00 | 0.00 | 0.00 | 36 | 1016.3 |
| 20260503222922 | 15 | 257 | 3.2 | 4.8 | 0.00 | 0.00 | 0.00 | 35 | 1016.4 |
| 20260503222421 | 15 | 301 | 3.2 | 4.8 | 0.00 | 0.00 | 0.00 | 37 | 1016.2 |
| 20260503221919 | 15 | 273 | 3.2 | 4.8 | 0.00 | 0.00 | 0.00 | 36 | 1016.4 |
| 20260503221417 | 15 | 81 | 1.6 | 3.2 | 0.00 | 0.00 | 0.00 | 37 | 1016.4 |
| 20260503220913 | 15 | 256 | 1.6 | 3.2 | 0.00 | 0.00 | 0.00 | 35 | 1016.3 |
| 20260503220410 | 15 | 167 | 6.4 | 6.4 | 0.00 | 0.00 | 0.00 | 34 | 1016.2 |
| 20260503215907 | 15 | 264 | 6.4 | 9.7 | 0.00 | 0.00 | 0.00 | 35 | 1016.2 |
| 20260503215404 | 15 | 245 | 8.0 | 9.7 | 0.00 | 0.00 | 0.00 | 32 | 1016.2 |
| 20260503214901 | 15 | 131 | 3.2 | 4.8 | 0.00 | 0.00 | 0.00 | 34 | 1016.2 |
| 20260503214358 | 15 | 158 | 4.8 | 4.8 | 0.00 | 0.00 | 0.00 | 35 | 1016.2 |
| 20260503213856 | 15 | 119 | 1.6 | 1.6 | 0.00 | 0.00 | 0.00 | 33 | 1016.3 |
| 20260503213354 | 15 | 90 | 0.0 | 1.6 | 0.00 | 0.00 | 0.00 | 36 | 1016.4 |
| 20260503212850 | 15 | 304 | 6.4 | 11.3 | 0.00 | 0.00 | 0.00 | 35 | 1016.4 |
| 20260503212348 | 14 | 327 | 9.7 | 11.3 | 0.00 | 0.00 | 0.00 | 35 | 1016.1 |
| 20260503211845 | 15 | 318 | 6.4 | 6.4 | 0.00 | 0.00 | 0.00 | 35 | 1016.2 |
| 20260503211342 | 15 | 115 | 1.6 | 3.2 | 0.00 | 0.00 | 0.00 | 35 | 1016.3 |
| 20260503210837 | 15 | 15 | 3.2 | 4.8 | 0.00 | 0.00 | 0.00 | 38 | 1016.5 |
| 20260503210334 | 15 | 299 | 6.4 | 9.7 | 0.00 | 0.00 | 0.00 | 35 | 1016.5 |
| 20260503205829 | 14 | 338 | 9.7 | 12.9 | 0.00 | 0.00 | 0.00 | 35 | 1016.5 |
| 20260503205326 | 14 | 291 | 8.0 | 9.7 | 0.00 | 0.00 | 0.00 | 33 | 1016.7 |
| 20260503204822 | 14 | 336 | 1.6 | 3.2 | 0.00 | 0.00 | 0.00 | 33 | 1016.5 |
| 20260503204320 | 15 | 294 | 6.4 | 6.4 | 0.00 | 0.00 | 0.00 | 34 | 1016.6 |
| 20260503203817 | 15 | 287 | 6.4 | 6.4 | 0.00 | 0.00 | 0.00 | 35 | 1016.8 |
| 20260503203315 | 15 | 0 | 6.4 | 6.4 | 0.00 | 0.00 | 0.00 | 37 | 1016.7 |
| 20260503202811 | 15 | 243 | 8.0 | 11.3 | 0.00 | 0.00 | 0.00 | 36 | 1016.9 |
| 20260503202309 | 15 | 256 | 9.7 | 16.1 | 0.00 | 0.00 | 0.00 | 35 | 1016.8 |
| 20260503201807 | 15 | 75 | 1.6 | 1.6 | 0.00 | 0.00 | 0.00 | 34 | 1016.9 |
| 20260503201304 | 15 | 53 | 1.6 | 4.8 | 0.00 | 0.00 | 0.00 | 38 | 1017.1 |
| 20260503200802 | 14 | 233 | 3.2 | 4.8 | 0.00 | 0.00 | 0.00 | 36 | 1017.1 |
| 20260503200257 | 13 | 357 | 1.6 | 3.2 | 0.00 | 0.00 | 0.00 | 32 | 1017.2 |
| 20260503195755 | 13 | 267 | 4.8 | 4.8 | 0.00 | 0.00 | 0.00 | 36 | 1017.4 |
| 20260503195251 | 14 | 273 | 3.2 | 4.8 | 0.00 | 0.00 | 0.00 | 43 | 1017.5 |
| 20260503194749 | 15 | 231 | 6.4 | 9.7 | 0.00 | 0.00 | 0.00 | 38 | 1017.5 |
| 20260503194244 | 13 | 104 | 1.6 | 1.6 | 0.00 | 0.00 | 0.00 | 37 | 1017.8 |
| 20260503193741 | 13 | 150 | 1.6 | 1.6 | 0.00 | 0.00 | 0.00 | 38 | 1017.8 |
| 20260503193237 | 14 | 27 | 1.6 | 1.6 | 0.00 | 0.00 | 0.00 | 35 | 1017.9 |
| 20260503192733 | 14 | 77 | 1.6 | 1.6 | 0.00 | 0.00 | 0.00 | 38 | 1017.9 |
| 20260503192228 | 12 | 124 | 4.8 | 4.8 | 0.00 | 0.00 | 0.00 | 37 | 1017.9 |
| 20260503191725 | 13 | 325 | 4.8 | 4.8 | 0.00 | 0.00 | 0.00 | 38 | 1018.0 |
| 20260503191222 | 13 | 285 | 8.0 | 11.3 | 0.00 | 0.00 | 0.00 | 40 | 1018.2 |
| 20260503190719 | 14 | 314 | 11.3 | 14.5 | 0.00 | 0.00 | 0.00 | 39 | 1018.3 |
| 20260503190215 | 13 | 74 | 0.0 | 0.0 | 0.00 | 0.00 | 0.00 | 44 | 1018.4 |
| 20260503185713 | 13 | 262 | 6.4 | 9.7 | 0.00 | 0.00 | 0.00 | 39 | 1018.7 |
| 20260503185208 | 13 | 235 | 8.0 | 9.7 | 0.00 | 0.00 | 0.00 | 41 | 1018.4 |
| 20260503184703 | 13 | 327 | 12.9 | 14.5 | 0.00 | 0.00 | 0.00 | 41 | 1018.6 |
| 20260503184200 | 13 | 263 | 1.6 | 1.6 | 0.00 | 0.00 | 0.00 | 42 | 1018.5 |
| 20260503183656 | 12 | 346 | 3.2 | 3.2 | 0.00 | 0.00 | 0.00 | 38 | 1018.6 |
| 20260503183153 | 12 | 135 | 1.6 | 3.2 | 0.00 | 0.00 | 0.00 | 44 | 1018.6 |
| 20260503182651 | 12 | 54 | 0.0 | 3.2 | 0.00 | 0.00 | 0.00 | 46 | 1018.7 |
| 20260503182150 | 11 | 55 | 1.6 | 1.6 | 0.00 | 0.00 | 0.00 | 39 | 1018.7 |
| 20260503181646 | 12 | 289 | 3.2 | 3.2 | 0.00 | 0.00 | 0.00 | 40 | 1019.0 |
| 20260503181143 | 12 | 241 | 4.8 | 9.7 | 0.00 | 0.00 | 0.00 | 39 | 1018.7 |
| 20260503180640 | 12 | 38 | 1.6 | 3.2 | 0.00 | 0.00 | 0.00 | 38 | 1019.0 |
| 20260503180138 | 11 | 292 | 9.7 | 11.3 | 0.00 | 0.00 | 0.00 | 37 | 1018.9 |
| 20260503175635 | 12 | 85 | 1.6 | 3.2 | 0.00 | 0.00 | 0.00 | 36 | 1019.0 |
| 20260503175131 | 12 | 325 | 8.0 | 9.7 | 0.00 | 0.00 | 0.00 | 42 | 1019.2 |
| 20260503174628 | 11 | 9 | 6.4 | 9.7 | 0.00 | 0.00 | 0.00 | 38 | 1019.0 |
| 20260503174126 | 11 | 57 | 4.8 | 6.4 | 0.00 | 0.00 | 0.00 | 39 | 1019.0 |
| 20260503173620 | 12 | 283 | 4.8 | 6.4 | 0.00 | 0.00 | 0.00 | 47 | 1019.0 |
| 20260503173117 | 12 | 155 | 4.8 | 6.4 | 0.00 | 0.00 | 0.00 | 42 | 1019.2 |
| 20260503172614 | 11 | 131 | 3.2 | 4.8 | 0.00 | 0.00 | 0.00 | 39 | 1019.2 |
| 20260503172112 | 11 | 147 | 3.2 | 3.2 | 0.00 | 0.00 | 0.00 | 43 | 1019.5 |
| 20260503171608 | 11 | 272 | 11.3 | 17.7 | 0.00 | 0.00 | 0.00 | 45 | 1019.7 |
| 20260503171105 | 11 | 106 | 3.2 | 4.8 | 0.00 | 0.00 | 0.00 | 45 | 1019.8 |
| 20260503170601 | 10 | 132 | 1.6 | 3.2 | 0.00 | 0.00 | 0.00 | 41 | 1019.8 |
| 20260503150948 | 8 | 109 | 1.6 | 1.6 | 0.00 | 0.00 | 0.00 | 52 | 1020.4 |
| 20260503150444 | 8 | 157 | 3.2 | 4.8 | 0.00 | 0.00 | 0.00 | 47 | 1020.6 |
| 20260503131331 | 6 | 21 | 6.4 | 6.4 | 0.00 | 0.00 | 0.00 | 55 | 1020.4 |
| 20260503130829 | 7 | 297 | 4.8 | 4.8 | 0.00 | 0.00 | 0.00 | 58 | 1020.3 |
| 20260503130326 | 6 | 127 | 1.6 | 1.6 | 0.00 | 0.00 | 0.00 | 63 | 1020.4 |
| 20260503110720 | -2 | 74 | 0.0 | 0.0 | 0.00 | 0.00 | 0.00 | 97 | 1019.4 |
| 20260503110217 | -2 | 74 | 0.0 | 0.0 | 0.00 | 0.00 | 0.00 | 97 | 1019.0 |
| 20260503100144 | -2 | 71 | 0.0 | 0.0 | 0.00 | 0.00 | 0.00 | 96 | 1018.5 |
| 20260503081538 | 0 | 65 | 0.0 | 0.0 | 0.00 | 0.00 | 0.00 | 92 | 1017.7 |
| 20260503081036 | 0 | 69 | 0.0 | 0.0 | 0.00 | 0.00 | 0.00 | 92 | 1017.5 |
| 20260503080532 | 0 | 68 | 0.0 | 0.0 | 0.00 | 0.00 | 0.00 | 92 | 1017.5 |